User: anonymous   Login
Location: Peebles
(55.6412°N, 3.1714°W)
Time: 19:51:51
(UTC+01:00)
Language:

CENTAUR R/B - Orbit

View from above orbital plane
View from above orbital plane
View from above satellite
View from above satellite

Ground track
Ground track

The orbit data is extracted from the following two-line orbital elements,

1 26906U 01040B   22128.85260437 0.00000235  00000-0  18711-3 0    02
2 26906  63.4374  66.1143 0505298 339.4344  20.5590 13.44123097    07
Epoch (UTC): 08 May 2022 20:27:45
Eccentricity: 0.0505298
inclination: 63.4374°
perigee height: 716 km
apogee height: 1471 km
right ascension of ascending node: 66.1143°
argument of perigee: 339.4344°
revolutions per day: 13.44123097
mean anomaly at epoch: 20.5590°
orbit number at epoch: 0

The dashed part of the orbit path shows where the satellite is in the earth's shadow,  

DLR